DW2893 Weather Reports


Display with metric or nautical units.
time (UTC)temp
F
wind
direction
speed
MPH
gust
MPH
rain 1hr
in
rain 24hr
in
rain mn
in
humidity
%
barometer
mb
20260510123306 64 125 5.0 9.0 0.00 0.35 0.35 95 1012.3
20260510121806 64 141 5.0 12.0 0.00 0.35 0.35 95 1012.1
20260510120306 63 149 4.0 9.0 0.00 0.35 0.35 95 1012.1
20260510113805 64 116 5.0 9.0 0.00 0.35 0.35 95 1012.1
20260510112806 64 143 4.0 8.0 0.00 0.35 0.35 95 1012.0
20260510112306 64 149 5.0 8.0 0.00 0.35 0.35 95 1012.0
20260510111305 63 115 3.0 8.0 0.00 0.35 0.35 95 1012.0
20260510104806 63 83 3.0 6.0 0.00 0.35 0.35 94 1011.7
20260510104305 63 117 5.0 9.0 0.00 0.35 0.35 94 1011.6
20260510102806 63 125 5.0 9.0 0.02 0.35 0.35 94 1011.3
20260510102306 63 130 4.0 8.0 0.02 0.35 0.35 93 1011.3
20260510095806 64 80 5.0 16.0 0.35 0.35 0.35 93 1012.0
20260510093306 64 80 8.0 20.0 0.34 0.34 0.34 91 1011.1
20260510092805 64 81 13.0 20.0 0.33 0.33 0.33 90 1011.1
20260510090806 69 14 12.0 26.0 0.00 0.00 0.00 79 1011.2
20260510090306 70 23 10.0 30.0 0.00 0.00 0.00 78 1011.2
20260510085306 71 37 13.0 24.0 0.00 0.00 0.00 80 1011.2
20260510084306 72 7 6.0 9.0 0.00 0.00 0.00 88 1011.1
20260510083305 73 56 2.0 8.0 0.00 0.00 0.00 91 1010.5
20260510082805 73 35 5.0 7.0 0.00 0.00 0.00 91 1010.1
20260510081806 74 77 3.0 7.0 0.00 0.00 0.00 90 1010.6
20260510081305 74 39 2.0 6.0 0.00 0.00 0.00 90 1010.6
20260510080805 74 41 4.0 8.0 0.00 0.00 0.00 90 1010.6
20260510075306 74 67 2.0 7.0 0.00 0.00 0.00 89 1009.7
20260510074305 74 91 3.0 8.0 0.00 0.00 0.00 89 1009.1
20260510072806 74 77 6.0 12.0 0.00 0.00 0.00 87 1008.7
20260510072306 74 86 6.0 12.0 0.00 0.00 0.00 87 1008.7
20260510071806 74 77 3.0 8.0 0.00 0.00 0.00 87 1008.4
20260510065805 75 145 7.0 14.0 0.00 0.00 0.00 86 1008.0
20260510065306 75 130 9.0 20.0 0.00 0.00 0.00 86 1008.0
20260510064305 75 85 4.0 12.0 0.00 0.00 0.00 85 1009.7
20260510061305 75 34 5.0 10.0 0.00 0.00 0.00 85 1010.4
20260510060805 75 43 5.0 8.0 0.00 0.00 0.00 85 1010.3
20260510060305 75 19 5.0 9.0 0.00 0.00 0.00 85 1010.3
20260510055804 75 10 6.0 8.0 0.00 0.00 0.00 85 1009.8
20260510054805 75 82 2.0 3.0 0.00 0.00 0.00 83 1008.4
20260510052306 75 131 5.0 9.0 0.00 0.00 0.00 80 1007.7
20260510050934 76 155 5.0 12.0 0.00 0.00 0.00 78 1007.4
20260510050305 76 147 6.0 12.0 0.00 0.00 0.00 78 1007.5
20260510045306 76 160 6.0 12.0 0.00 0.00 0.00 76 1007.5
20260510044305 76 147 5.0 12.0 0.00 0.00 0.00 75 1007.3
20260510042307 76 148 6.0 10.0 0.00 0.00 0.00 74 1007.1
20260510035804 76 137 3.0 7.0 0.00 0.00 0.00 73 1007.4
20260510034804 77 121 5.0 7.0 0.00 0.00 0.00 72 1007.5
20260510033304 77 141 4.0 9.0 0.00 0.00 0.00 72 1007.4
20260510032804 77 139 5.0 9.0 0.00 0.00 0.00 72 1007.5
20260510030804 78 129 5.0 8.0 0.00 0.00 0.00 70 1007.5
20260510030304 78 147 3.0 6.0 0.00 0.00 0.00 70 1007.5
20260510022805 79 98 6.0 9.0 0.00 0.00 0.00 68 1007.3
20260510021804 79 98 7.0 12.0 0.00 0.00 0.00 68 1007.0
20260510021304 79 94 5.0 8.0 0.00 0.00 0.00 68 1007.0
20260510020304 79 90 5.0 9.0 0.00 0.00 0.00 66 1007.1
20260510015805 79 96 5.0 8.0 0.00 0.00 0.00 65 1007.0
20260510015306 79 94 5.0 8.0 0.00 0.00 0.00 65 1007.0
20260510014804 80 104 4.0 8.0 0.00 0.00 0.00 64 1006.9
20260510014309 80 102 5.0 7.0 0.00 0.00 0.00 64 1006.9
20260510013808 80 98 2.0 5.0 0.00 0.00 0.00 63 1006.8
20260510013308 80 97 3.0 7.0 0.00 0.00 0.00 63 1006.8
20260510012808 80 102 5.0 8.0 0.00 0.00 0.00 63 1006.8
20260510011308 81 94 5.0 9.0 0.00 0.00 0.00 61 1006.6
20260510010308 82 91 6.0 12.0 0.00 0.00 0.00 59 1006.4
20260510004308 83 99 6.0 10.0 0.00 0.00 0.00 56 1006.3
20260510003808 83 93 5.0 12.0 0.00 0.00 0.00 56 1006.3
20260510002308 83 97 7.0 12.0 0.00 0.00 0.00 54 1006.3
20260510001808 83 94 5.0 12.0 0.00 0.00 0.00 55 1006.3
20260510001308 84 82 5.0 12.0 0.00 0.00 0.00 55 1006.3
20260509234308 85 88 4.0 9.0 0.00 0.00 0.00 57 1006.4
20260509232808 85 104 7.0 13.0 0.00 0.00 0.00 56 1006.6
20260509232308 85 92 6.0 12.0 0.00 0.00 0.00 57 1006.6
20260509231308 85 149 3.0 7.0 0.00 0.00 0.00 58 1006.4
20260509230808 85 84 4.0 12.0 0.00 0.00 0.00 58 1006.4
20260509225307 85 80 6.0 10.0 0.00 0.00 0.00 59 1006.4
20260509224808 86 118 5.0 12.0 0.00 0.00 0.00 59 1006.4
20260509224308 86 85 5.0 12.0 0.00 0.00 0.00 59 1006.4
20260509223808 86 126 3.0 12.0 0.00 0.00 0.00 60 1006.3
20260509222308 86 102 2.0 8.0 0.00 0.00 0.00 60 1006.3
20260509213808 86 90 6.0 14.0 0.00 0.00 0.00 62 1006.4
20260509211308 86 120 4.0 12.0 0.00 0.00 0.00 61 1007.0
20260509210807 86 97 4.0 12.0 0.00 0.00 0.00 62 1007.0
20260509210307 86 96 7.0 12.0 0.00 0.00 0.00 63 1007.0
20260509205308 86 111 6.0 12.0 0.00 0.00 0.00 62 1007.0
20260509203807 88 72 4.0 7.0 0.00 0.00 0.00 56 1007.1
20260509203307 88 71 1.0 5.0 0.00 0.00 0.00 56 1007.3
20260509202308 89 82 5.0 12.0 0.00 0.00 0.00 56 1007.3
20260509201308 88 9 2.0 5.0 0.00 0.00 0.00 50 1007.3
20260509200307 88 49 6.0 12.0 0.00 0.00 0.00 52 1007.3
20260509194807 87 4 2.0 8.0 0.00 0.00 0.00 53 1007.7
20260509194308 87 33 5.0 9.0 0.00 0.00 0.00 56 1007.7
20260509192307 86 40 3.0 7.0 0.00 0.00 0.00 60 1007.8
20260509191307 86 81 1.0 5.0 0.00 0.00 0.00 60 1008.0
20260509190807 86 36 5.0 12.0 0.00 0.00 0.00 59 1008.0
20260509190308 86 80 3.0 7.0 0.00 0.00 0.00 60 1008.0
20260509185807 86 69 2.0 7.0 0.00 0.00 0.00 61 1008.0
20260509185307 85 316 5.0 8.0 0.00 0.00 0.00 62 1008.3
20260509184807 84 335 4.0 8.0 0.00 0.00 0.00 62 1008.3
20260509184307 84 16 2.0 7.0 0.00 0.00 0.00 63 1008.3
20260509182807 85 9 2.0 5.0 0.00 0.00 0.00 65 1008.4
20260509182307 85 20 3.0 7.0 0.00 0.00 0.00 66 1008.4
20260509180307 83 7 3.0 7.0 0.00 0.00 0.00 68 1008.6
20260509175807 83 339 5.0 7.0 0.00 0.00 0.00 69 1008.6
20260509175307 82 44 2.0 5.0 0.00 0.00 0.00 69 1008.8
20260509173807 82 7 3.0 8.0 0.00 0.00 0.00 70 1008.8
20260509173307 81 38 2.0 7.0 0.00 0.00 0.00 71 1008.9
20260509172807 81 24 2.0 7.0 0.00 0.00 0.00 71 1008.9
20260509171306 80 0 3.0 7.0 0.00 0.00 0.00 73 1009.0
20260509170307 80 18 1.0 8.0 0.00 0.00 0.00 74 1009.1
20260509165307 79 15 3.0 7.0 0.00 0.00 0.00 74 1009.0
20260509162807 78 345 6.0 12.0 0.00 0.00 0.00 76 1009.1
20260509162307 78 8 5.0 8.0 0.00 0.00 0.00 76 1009.1
20260509161807 77 355 3.0 8.0 0.00 0.00 0.00 78 1009.1
20260509161307 77 56 3.0 10.0 0.00 0.00 0.00 78 1009.1
20260509160307 77 341 6.0 9.0 0.00 0.00 0.00 78 1009.0
20260509155307 75 347 4.0 7.0 0.00 0.00 0.00 82 1009.0
20260509154807 74 324 3.0 7.0 0.00 0.00 0.00 84 1009.1
20260509154307 73 358 4.0 8.0 0.00 0.00 0.00 84 1009.2
20260509151307 72 314 2.0 7.0 0.00 0.00 0.00 87 1009.1
20260509150807 72 340 5.0 8.0 0.00 0.00 0.00 87 1009.0
20260509150306 72 337 4.0 7.0 0.00 0.00 0.00 88 1009.0
20260509145306 71 33 2.0 9.0 0.00 0.00 0.00 88 1009.1
20260509143806 71 352 4.0 9.0 0.00 0.00 0.00 88 1009.0
20260509143307 71 322 4.0 12.0 0.00 0.00 0.00 88 1008.9
20260509140806 71 334 5.0 12.0 0.00 0.00 0.00 91 1008.7
20260509140307 71 343 4.0 8.0 0.00 0.00 0.00 92 1008.7
20260509135806 70 325 3.0 7.0 0.00 0.00 0.00 92 1008.7
20260509135306 70 340 5.0 8.0 0.00 0.00 0.00 92 1008.7
20260509134307 70 339 4.0 7.0 0.00 0.00 0.00 93 1008.6
20260509133806 69 299 3.0 6.0 0.00 0.00 0.00 93 1008.6
20260509133306 69 333 3.0 8.0 0.00 0.00 0.00 93 1008.4
20260509125806 69 296 6.0 10.0 0.00 0.02 0.00 93 1008.5
20260509124806 69 304 4.0 8.0 0.00 0.04 0.00 94 1008.3